Location: Dąbrowa Miętka
(51.3714°N, 18.6370°E)
Time: 00:43:14
(UTC+02:00)

ISS - Pass Details

Date: 28 May 2018
Orbit: 402 x 408 km, 51.6° (Epoch: 20 September)

Event Time Altitude Azimuth Distance (km) Brightness Sun altitude
Rises 22:35:44 0° 277° (W) 2,324 0.6 -11.9°
Reaches altitude 10° 22:37:49 10° 278° (W) 1,462 -0.5 -12.1°
Maximum altitude 22:41:06 89° 191° (SSW) 409 -3.9 -12.3°
Enters shadow 22:44:14 11° 100° (E) 1,400 -1.5 -12.6°
